K4SHP-15 Weather Reports


time (UTC)temp
C
wind
direction
speed
KPH
gust
KPH
rain 1hr
cm
rain 24hr
cm
rain mn
cm
humidity
%
barometer
mb
20260505201824 24 135 8.0 16.1 0.00 0.00 0.00 58 1014.5
20260505200903 25 132 6.4 14.5 0.00 0.00 0.00 56 1014.9
20260505200002 25 124 6.4 14.5 0.00 0.00 0.00 57 1014.9
20260505195402 25 134 6.4 14.5 0.00 0.00 0.00 55 1014.7
20260505194502 25 162 6.4 11.3 0.00 0.00 0.00 55 1014.7
20260505193602 25 161 6.4 16.1 0.00 0.00 0.00 53 1015.0
20260505192702 25 154 6.4 19.3 0.00 0.00 0.00 55 1015.0
20260505191802 25 135 6.4 11.3 0.00 0.00 0.00 54 1015.2
20260505190902 25 146 6.4 11.3 0.00 0.00 0.00 55 1015.5
20260505190003 24 125 8.0 16.1 0.00 0.00 0.00 55 1015.5
20260505185424 25 122 8.0 14.5 0.00 0.00 0.00 55 1015.5
20260505184502 25 139 8.0 16.1 0.00 0.00 0.00 54 1015.5
20260505183602 25 145 6.4 16.1 0.00 0.00 0.00 55 1015.4
20260505182703 24 125 8.0 14.5 0.00 0.00 0.00 57 1015.4
20260505181803 24 125 8.0 14.5 0.00 0.00 0.00 56 1015.4
20260505180902 24 143 6.4 14.5 0.00 0.00 0.00 54 1015.6
20260505180003 25 157 6.4 12.9 0.00 0.00 0.00 54 1015.6
20260505175403 25 134 8.0 17.7 0.00 0.00 0.00 57 1015.7
20260505174503 25 148 4.8 9.7 0.00 0.00 0.00 55 1015.7
20260505173623 25 141 6.4 11.3 0.00 0.00 0.00 55 1015.9
20260505172702 25 145 6.4 11.3 0.00 0.00 0.00 55 1015.9
20260505171824 25 139 6.4 12.9 0.00 0.00 0.00 54 1015.9
20260505170902 25 147 6.4 11.3 0.00 0.00 0.00 56 1016.0
20260505170003 24 130 4.8 12.9 0.00 0.00 0.00 58 1016.0
20260505165403 25 144 4.8 11.3 0.00 0.00 0.00 57 1016.1
20260505164524 25 190 4.8 9.7 0.00 0.00 0.00 58 1016.1
20260505163624 24 149 4.8 11.3 0.00 0.00 0.00 61 1016.5
20260505162703 24 145 4.8 11.3 0.00 0.00 0.00 58 1016.5
20260505161845 23 130 6.4 12.9 0.00 0.00 0.00 60 1016.5
20260505160903 25 148 3.2 9.7 0.00 0.00 0.00 60 1016.6
20260505152703 24 193 4.8 14.5 0.00 0.00 0.00 58 1016.8
20260505151803 23 183 4.8 14.5 0.00 0.00 0.00 58 1016.7
20260505150903 24 202 4.8 14.5 0.00 0.00 0.00 59 1016.6
20260505124503 18 220 1.6 8.0 0.00 0.00 0.00 84 1016.5
20260505123603 17 209 1.6 6.4 0.00 0.00 0.00 89 1016.5
20260505122724 16 214 3.2 6.4 0.00 0.00 0.00 93 1016.5
20260505121803 15 222 3.2 6.4 0.00 0.00 0.00 97 1016.5
20260505120903 14 207 1.6 8.0 0.00 0.00 0.00 98 1016.2
20260505120003 13 225 0.0 6.4 0.00 0.00 0.00 98 1016.2
20260505115403 12 225 0.0 6.4 0.00 0.00 0.00 98 1016.1
20260505114503 12 0 0.0 0.0 0.00 0.00 0.00 97 1016.1
20260505113603 11 0 0.0 0.0 0.00 0.00 0.00 97 1016.0
20260505112703 11 0 0.0 0.0 0.00 0.00 0.00 97 1016.0
20260505111803 11 0 0.0 0.0 0.00 0.00 0.00 96 1015.8
20260505110903 10 0 0.0 0.0 0.00 0.00 0.00 96 1015.5
20260505101824 10 0 0.0 0.0 0.00 0.00 0.00 96 1015.2
20260505100903 10 0 0.0 0.0 0.00 0.00 0.00 95 1015.1
20260505100003 10 0 0.0 0.0 0.00 0.00 0.00 95 1015.1
20260505095403 10 0 0.0 0.0 0.00 0.00 0.00 95 1014.9
20260505094503 11 0 0.0 0.0 0.00 0.00 0.00 95 1014.9
20260505093624 11 0 0.0 0.0 0.00 0.00 0.00 95 1014.9
20260505092703 11 0 0.0 0.0 0.00 0.00 0.00 95 1014.9
20260505091803 11 0 0.0 0.0 0.00 0.00 0.00 95 1014.9
20260505090903 11 0 0.0 0.0 0.00 0.00 0.00 95 1014.7
20260505090003 11 0 0.0 0.0 0.00 0.00 0.00 95 1014.7
20260505085403 11 0 0.0 0.0 0.00 0.00 0.00 95 1014.5
20260505084503 11 0 0.0 0.0 0.00 0.00 0.00 94 1014.5
20260505083603 11 0 0.0 0.0 0.00 0.00 0.00 94 1014.5
20260505082703 11 0 0.0 0.0 0.00 0.00 0.00 94 1014.5
20260505081803 11 0 0.0 0.0 0.00 0.00 0.00 94 1014.4
20260505080903 11 0 0.0 0.0 0.00 0.00 0.00 93 1014.5
20260505080003 11 0 0.0 0.0 0.00 0.00 0.00 93 1014.5
20260505075403 11 0 0.0 0.0 0.00 0.00 0.00 93 1014.5
20260505074524 11 0 0.0 0.0 0.00 0.00 0.00 93 1014.5
20260505073603 11 0 0.0 0.0 0.00 0.00 0.00 93 1014.5
20260505072703 11 0 0.0 0.0 0.00 0.00 0.00 92 1014.5
20260505071824 11 0 0.0 0.0 0.00 0.00 0.00 92 1014.5
20260505070903 12 0 0.0 0.0 0.00 0.00 0.00 91 1014.6
20260505070003 12 0 0.0 0.0 0.00 0.00 0.00 91 1014.6
20260505065403 12 0 0.0 0.0 0.00 0.00 0.00 91 1014.7
20260505064503 12 0 0.0 0.0 0.00 0.00 0.00 90 1014.7
20260505063624 12 0 0.0 0.0 0.00 0.00 0.00 90 1014.8
20260505062703 12 0 0.0 0.0 0.00 0.00 0.00 89 1014.8
20260505061824 12 0 0.0 0.0 0.00 0.00 0.00 89 1014.9
20260505060903 12 0 0.0 0.0 0.00 0.00 0.00 89 1015.1
20260505060003 12 0 0.0 0.0 0.00 0.00 0.00 88 1015.1
20260505055403 12 0 0.0 0.0 0.00 0.00 0.00 88 1015.2
20260505054503 12 0 0.0 0.0 0.00 0.00 0.00 87 1015.2
20260505053603 12 0 0.0 0.0 0.00 0.00 0.00 87 1015.4
20260505052703 13 231 0.0 3.2 0.00 0.00 0.00 87 1015.4
20260505051803 13 231 0.0 3.2 0.00 0.00 0.00 87 1015.5
20260505050903 13 231 0.0 1.6 0.00 0.00 0.00 86 1015.6
20260505040903 13 0 0.0 0.0 0.00 0.00 0.00 83 1015.5
20260505040004 13 0 0.0 0.0 0.00 0.00 0.00 82 1015.5
20260505035403 14 0 0.0 0.0 0.00 0.00 0.00 82 1015.5
20260505034503 14 0 0.0 0.0 0.00 0.00 0.00 82 1015.5
20260505033601 14 0 0.0 0.0 0.00 0.00 0.00 81 1015.5
20260505032701 15 231 0.0 1.6 0.00 0.00 0.00 81 1015.5
20260505031801 15 231 0.0 1.6 0.00 0.00 0.00 80 1015.5
20260505030901 15 231 0.0 3.2 0.00 0.00 0.00 80 1015.5
20260505030001 15 0 0.0 0.0 0.00 0.00 0.00 77 1015.5
20260505025401 15 0 0.0 0.0 0.00 0.00 0.00 77 1015.6
20260505024501 16 231 0.0 1.6 0.00 0.00 0.00 77 1015.6
20260505023601 16 231 0.0 1.6 0.00 0.00 0.00 75 1015.5
20260505022701 16 231 0.0 1.6 0.00 0.00 0.00 75 1015.5
20260505021823 16 0 0.0 0.0 0.00 0.00 0.00 74 1015.5
20260505020901 16 0 0.0 1.6 0.00 0.00 0.00 74 1015.5
20260505020001 17 231 0.0 6.4 0.00 0.00 0.00 72 1015.5
20260505015401 17 232 0.0 6.4 0.00 0.00 0.00 72 1015.4
20260505014522 17 218 0.0 3.2 0.00 0.00 0.00 71 1015.4
20260505013601 17 218 0.0 3.2 0.00 0.00 0.00 70 1015.3
20260505012701 17 218 1.6 4.8 0.00 0.00 0.00 70 1015.3
20260505011801 17 218 0.0 4.8 0.00 0.00 0.00 69 1015.0
20260505010902 17 0 0.0 0.0 0.00 0.00 0.00 68 1014.9
20260505010001 18 0 0.0 1.6 0.00 0.00 0.00 67 1014.9
20260505005401 18 214 0.0 3.2 0.00 0.00 0.00 66 1014.7
20260505004501 18 184 1.6 3.2 0.00 0.00 0.00 64 1014.7
20260505003601 18 155 1.6 3.2 0.00 0.00 0.00 63 1014.5
20260505002701 18 190 1.6 3.2 0.00 0.00 0.00 63 1014.5
20260505001801 19 202 1.6 4.8 0.00 0.00 0.00 63 1014.4
20260505000901 19 196 3.2 11.3 0.00 0.00 0.00 62 1014.5
20260505000002 20 191 1.6 4.8 0.00 0.00 0.00 61 1014.5
20260504235401 20 203 3.2 6.4 0.00 0.00 0.00 60 1014.4
20260504234501 20 160 3.2 6.4 0.00 0.00 0.00 60 1014.4
20260504233601 20 164 4.8 9.7 0.00 0.00 0.00 58 1014.3
20260504232701 21 177 3.2 8.0 0.00 0.00 0.00 58 1014.3
20260504231801 21 153 3.2 9.7 0.00 0.00 0.00 57 1014.1
20260504230902 21 177 4.8 16.1 0.00 0.00 0.00 55 1014.2
20260504230002 21 187 4.8 11.3 0.00 0.00 0.00 54 1014.2
20260504225402 21 172 4.8 14.5 0.00 0.00 0.00 54 1014.2
20260504224522 22 158 6.4 14.5 0.00 0.00 0.00 54 1014.2
20260504223602 22 185 6.4 12.9 0.00 0.00 0.00 54 1014.1
20260504222722 22 162 6.4 16.1 0.00 0.00 0.00 54 1014.1
20260504221822 22 125 6.4 14.5 0.00 0.00 0.00 55 1014.0
20260504220901 22 157 6.4 14.5 0.00 0.00 0.00 55 1014.1
20260504220022 22 144 4.8 12.9 0.00 0.00 0.00 54 1014.1
20260504215422 22 140 4.8 12.9 0.00 0.00 0.00 55 1013.9
20260504214522 22 132 9.7 14.5 0.00 0.00 0.00 55 1013.9
20260504213601 22 137 8.0 16.1 0.00 0.00 0.00 53 1013.9
20260504212723 22 128 8.0 12.9 0.00 0.00 0.00 54 1013.9
20260504211823 23 138 6.4 14.5 0.00 0.00 0.00 54 1013.9
20260504210902 23 152 4.8 9.7 0.00 0.00 0.00 55 1013.9
20260504210002 23 135 8.0 14.5 0.00 0.00 0.00 56 1013.9
20260504205401 23 132 8.0 17.7 0.00 0.00 0.00 56 1014.0
20260504204522 23 134 8.0 17.7 0.00 0.00 0.00 54 1014.0
20260504203602 23 135 8.0 16.1 0.00 0.00 0.00 55 1013.9
20260504202702 25 166 6.4 19.3 0.00 0.00 0.00 53 1013.9